Track METEOR 2-14 now! 10-day predictions METEOR 2-14 is classified as:
1 16735U 86039A 21022.82106329 .00000039 00000-0 21006-4 0 9991 2 16735 82.5346 55.2850 0014494 352.7878 180.5229 13.85313100751745